Location: Staunton
(38.1490°N, 79.0720°W)
Time: 11:41:51
(UTC-05:00)

ISS - Pass Details

Date: 02 December 2021
Orbit: 417 x 422 km, 51.6° (Epoch: 05 December)

Event Time Altitude Azimuth Distance (km) Brightness Sun altitude
Rises 18:09:47 0° 319° (NW) 2,376 0.4 -14.1°
Reaches altitude 10° 18:12:43 10° 346° (NNW) 1,509 -1.0 -14.7°
Enters shadow 18:14:17 14° 14° (NNE) 1,301 -1.6 -15.0°
